Weather in Zadonsk

Russia / Lipetsk Oblast     52°23′31″N   38°55′10″E
temp.,
°C
wind,
m/s
gust,
m/s
humid.,
%
clouds,
%
prec.,
mm/h
press.,
hPa
HPBL,
m
23 april, fri
fri2300:00+8ssw357925 0.0 102077
03:00+8s338187 0.0 101942
06:00+8s358194 0.0 1019103
09:00+12s476718 0.0 1019392
12:00+16ssw6843100 0.1 10172432
15:00+16s6845100 0.1 10162119
18:00+14s58585 0.0 1015522
21:00+11sse5117264 0.1 1014286
24 april, sat
sat2400:00+10s4127740 0.3 1012320
03:00+8s51187100 0.4 1010417
06:00+5wnw5792100 0.8 1010644
09:00+4wnw5887100 2.1 1011752
12:00+8w5857100 0.6 10101675
15:00+10w7847100 0.9 10092031
18:00+7w71068100 0.6 10101124
21:00+4w61170100 0.8 1011699
25 april, sun
sun2500:00+2w7128580 0.0 1012594
03:00+2w81395100 0.2 1013787
06:00+2w712835 0.1 1015631
09:00+5w711635 0.1 10161145
12:00+8wsw8114597 0.1 10162465
15:00+10wsw71039100 0.1 10162628
18:00+9sw69460 0.1 10151439
21:00+5s5136199 0.1 1015422
26 april, mon
mon2600:00+4wsw6108789 0.9 1016737
03:00+2w379414 0.9 1016235
06:00+1sw259379 0.0 1017191
09:00+5wsw236797 0.0 1016759
12:00+6wsw2253100 0.1 10151383
15:00+7wsw2347100 0.1 10131549
18:00+7wsw345199 0.0 10121549
21:00+4sw366973 0.0 1012120
27 april, tue
tue2700:00+3wsw377714 0.1 1012144
03:00+2sw498398 0.1 1012203
06:00+2wsw598853 0.3 1012474
09:00+3w8107398 0.3 10131205
12:00+7w6852100 0.4 10131971
15:00+8w684679 0.9 10131878
18:00+7w575782 1.6 1014801
21:00+3wsw49744 1.6 1016166